Regional Weather Roundup
Issued by NWS

Home | Current Version | Previous Version | Text Only | Print | Product List | Glossary Off
Versions: 1 2 3 4 5 6 7 8 9 10 11 12 13 14 15 16 17 18 19 20 21 22 23 24 25 26 27 28 29 30 31 32 33 34 35 36 37 38 39 40 41 42 43 44 45 46 47 48 49 50

869
ASUS43 KBIS 101710
RWRND

NORTH DAKOTA REGIONAL WEATHER ROUNDUP
NATIONAL WEATHER SERVICE BISMARCK ND
1100 AM CST WED FEB 10 2016

NOTE: "FAIR" INDICATES FEW OR NO CLOUDS BELOW 12,000 FEET WITH NO
SIGNIFICANT WEATHER AND/OR OBSTRUCTIONS TO VISIBILITY.


NDZ001>003-009>011-017-101800-
NORTHWEST NORTH DAKOTA

CITY           SKY/WX    TMP DP  RH WIND       PRES   REMARKS
WILLISTON      CLOUDY    30  25  81 N9        30.00R
MINOT          CLOUDY    18   8  65 E9        29.97S HAZE    WCI   7
MINOT AFB      CLOUDY    16  10  79 E8        29.99R WCI   5
$$

NDZ018>021-031>035-040>046-101800-
SOUTHWEST NORTH DAKOTA

CITY           SKY/WX    TMP DP  RH WIND       PRES   REMARKS
BISMARCK       CLOUDY    24  15  68 SE6       29.94R WCI  17
DICKINSON      SUNNY     39  29  67 NW21G29   29.89R
GARRISON         N/A     19  14  81 E8        29.95R WCI   9
HETTINGER ARPT SUNNY     45  28  51 NW21G30   29.89R
$$

NDZ004>008-012>016-024-026-027-054-101800-
NORTHEAST NORTH DAKOTA

CITY           SKY/WX    TMP DP  RH WIND       PRES   REMARKS
GRAND FORKS    CLOUDY     8  -1  66 E7        30.16R WCI  -3
GRND FRKS AFB  CLOUDY     7  -1  70 E7        30.14R WCI  -5
DEVILS LAKE    FLURRIES   5   0  79 SE15      30.06R WCI -13
$$

NDZ022-023-025-028>030-036>039-047>053-101800-
SOUTHEAST NORTH DAKOTA

CITY           SKY/WX    TMP DP  RH WIND       PRES   REMARKS
FARGO          CLOUDY    10   3  73 E6        30.12R WCI   0
JAMESTOWN      CLOUDY     8   3  80 E14       30.01R WCI  -8
$$





USA.gov is the U.S. government's official web portal to all federal, state and local government web resources and services.